Time,TemperatureF,DewpointF,PressureIn,WindDirection,WindDirectionDegrees,WindSpeedMPH,WindSpeedGustMPH,Humidity,HourlyPrecipIn,Conditions,Clouds,dailyrainin,SoftwareType,DateUTC
2018-01-17 00:00:00,4.8,-1.4,30.74,SSW,199,2.0,2.0,75,0.00,,,0.00,Wunderground v.1.15,2018-01-17 06:00:00,
2018-01-17 00:10:00,4.8,-1.4,30.74,SSW,203,1.0,4.0,75,0.00,,,0.00,Wunderground v.1.15,2018-01-17 06:10:00,
2018-01-17 00:18:00,5.2,-1.0,30.73,SSW,202,3.0,4.0,75,0.00,,,0.00,Wunderground v.1.15,2018-01-17 06:18:00,
2018-01-17 00:24:00,5.4,-0.8,30.73,SSW,203,3.0,6.0,75,0.00,,,0.00,Wunderground v.1.15,2018-01-17 06:24:00,
2018-01-17 00:30:00,5.4,-1.1,30.72,SSW,203,2.0,4.0,74,0.00,,,0.00,Wunderground v.1.15,2018-01-17 06:30:00,
2018-01-17 00:36:00,5.4,-1.1,30.72,SSW,202,2.0,4.0,74,0.00,,,0.00,Wunderground v.1.15,2018-01-17 06:36:00,
2018-01-17 00:42:00,5.2,-1.3,30.72,SSW,202,1.0,2.0,74,0.00,,,0.00,Wunderground v.1.15,2018-01-17 06:42:00,
2018-01-17 00:48:00,5.0,-1.5,30.72,SSW,202,1.0,2.0,74,0.00,,,0.00,Wunderground v.1.15,2018-01-17 06:48:00,
2018-01-17 00:54:00,4.8,-2.0,30.72,SSW,202,0.0,1.0,73,0.00,,,0.00,Wunderground v.1.15,2018-01-17 06:54:00,
2018-01-17 01:02:00,4.5,-2.3,30.72,SSW,202,0.0,0.0,73,0.00,,,0.00,Wunderground v.1.15,2018-01-17 07:02:00,
2018-01-17 01:08:00,4.3,-2.4,30.72,SSW,202,0.0,0.0,73,0.00,,,0.00,Wunderground v.1.15,2018-01-17 07:08:00,
2018-01-17 01:14:00,4.3,-2.2,30.72,SSW,202,0.0,6.0,74,0.00,,,0.00,Wunderground v.1.15,2018-01-17 07:14:00,
2018-01-17 01:22:00,4.5,-2.0,30.71,SSW,203,1.0,4.0,74,0.00,,,0.00,Wunderground v.1.15,2018-01-17 07:22:00,
2018-01-17 01:28:00,4.7,-1.8,30.71,SSW,198,2.0,6.0,74,0.00,,,0.00,Wunderground v.1.15,2018-01-17 07:28:00,
2018-01-17 01:34:00,4.8,-1.7,30.70,SSW,198,2.0,2.0,74,0.00,,,0.00,Wunderground v.1.15,2018-01-17 07:34:00,
2018-01-17 01:48:00,5.6,-1.2,30.70,South,172,4.0,4.0,73,0.00,,,0.00,Wunderground v.1.15,2018-01-17 07:48:00,
2018-01-17 01:54:00,5.6,-1.2,30.70,South,188,4.0,7.0,73,0.00,,,0.00,Wunderground v.1.15,2018-01-17 07:54:00,
2018-01-17 02:00:00,5.8,-1.0,30.70,SSW,205,4.0,4.0,73,0.00,,,0.00,Wunderground v.1.15,2018-01-17 08:00:00,
2018-01-17 02:12:00,6.0,-1.1,30.70,SSE,160,4.0,6.0,72,0.00,,,0.00,Wunderground v.1.15,2018-01-17 08:12:00,
2018-01-17 02:18:00,6.1,-1.0,30.69,SSW,210,4.0,6.0,72,0.00,,,0.00,Wunderground v.1.15,2018-01-17 08:18:00,
2018-01-17 02:24:00,6.3,-0.8,30.69,SSE,165,5.0,5.0,72,0.00,,,0.00,Wunderground v.1.15,2018-01-17 08:24:00,
2018-01-17 02:36:00,6.3,-1.1,30.69,SSW,200,4.0,8.0,71,0.00,,,0.00,Wunderground v.1.15,2018-01-17 08:36:00,
2018-01-17 02:42:00,6.3,-1.1,30.69,SSW,192,4.0,7.0,71,0.00,,,0.00,Wunderground v.1.15,2018-01-17 08:42:00,
2018-01-17 02:48:00,6.5,-0.9,30.69,SSW,200,5.0,7.0,71,0.00,,,0.00,Wunderground v.1.15,2018-01-17 08:48:00,
2018-01-17 02:54:00,6.5,-0.9,30.69,South,184,5.0,5.0,71,0.00,,,0.00,Wunderground v.1.15,2018-01-17 08:54:00,
2018-01-17 03:00:00,6.7,-0.7,30.68,SSW,205,6.0,7.0,71,0.00,,,0.00,Wunderground v.1.15,2018-01-17 09:00:00,
2018-01-17 03:06:00,6.7,-1.0,30.68,SSW,206,5.0,7.0,70,0.00,,,0.00,Wunderground v.1.15,2018-01-17 09:06:00,
2018-01-17 03:12:00,6.7,-1.0,30.68,SSW,208,4.0,4.0,70,0.00,,,0.00,Wunderground v.1.15,2018-01-17 09:12:00,
2018-01-17 03:18:00,6.5,-1.2,30.67,SSW,203,3.0,4.0,70,0.00,,,0.00,Wunderground v.1.15,2018-01-17 09:18:00,
2018-01-17 03:24:00,6.5,-1.2,30.67,SSW,212,2.0,2.0,70,0.00,,,0.00,Wunderground v.1.15,2018-01-17 09:24:00,
2018-01-17 03:30:00,6.3,-1.4,30.67,SSW,200,1.0,1.0,70,0.00,,,0.00,Wunderground v.1.15,2018-01-17 09:30:00,
2018-01-17 03:36:00,6.3,-1.4,30.67,SSW,200,1.0,1.0,70,0.00,,,0.00,Wunderground v.1.15,2018-01-17 09:36:00,
2018-01-17 03:42:00,6.3,-1.1,30.67,South,188,2.0,2.0,71,0.00,,,0.00,Wunderground v.1.15,2018-01-17 09:42:00,
2018-01-17 03:52:00,6.7,-1.0,30.67,SSW,202,4.0,7.0,70,0.00,,,0.00,Wunderground v.1.15,2018-01-17 09:52:00,
2018-01-17 03:58:00,6.9,-0.8,30.67,South,181,5.0,7.0,70,0.00,,,0.00,Wunderground v.1.15,2018-01-17 09:58:00,
2018-01-17 04:04:00,6.9,-0.8,30.67,SSW,199,4.0,7.0,70,0.00,,,0.00,Wunderground v.1.15,2018-01-17 10:04:00,
2018-01-17 04:12:00,6.9,-0.8,30.67,SSW,199,4.0,6.0,70,0.00,,,0.00,Wunderground v.1.15,2018-01-17 10:12:00,
2018-01-17 04:20:00,7.0,-1.0,30.67,SSW,203,5.0,6.0,69,0.00,,,0.00,Wunderground v.1.15,2018-01-17 10:20:00,
2018-01-17 04:26:00,7.2,-0.8,30.67,SW,216,5.0,7.0,69,0.00,,,0.00,Wunderground v.1.15,2018-01-17 10:26:00,
2018-01-17 04:32:00,7.2,-0.8,30.65,SSW,203,5.0,7.0,69,0.00,,,0.00,Wunderground v.1.15,2018-01-17 10:32:00,
2018-01-17 04:40:00,7.2,-0.8,30.65,SSW,200,5.0,7.0,69,0.00,,,0.00,Wunderground v.1.15,2018-01-17 10:40:00,
2018-01-17 04:46:00,7.2,-0.8,30.65,SSW,213,3.0,6.0,69,0.00,,,0.00,Wunderground v.1.15,2018-01-17 10:46:00,
2018-01-17 04:52:00,7.2,-0.8,30.65,SSW,203,3.0,3.0,69,0.00,,,0.00,Wunderground v.1.15,2018-01-17 10:52:00,
2018-01-17 04:58:00,7.2,-0.8,30.65,SSW,205,2.0,3.0,69,0.00,,,0.00,Wunderground v.1.15,2018-01-17 10:58:00,
2018-01-17 05:04:00,7.0,-1.0,30.65,SSW,206,2.0,4.0,69,0.00,,,0.00,Wunderground v.1.15,2018-01-17 11:04:00,
2018-01-17 05:10:00,7.0,-1.0,30.65,SSW,208,2.0,2.0,69,0.00,,,0.00,Wunderground v.1.15,2018-01-17 11:10:00,
2018-01-17 05:16:00,7.2,-0.8,30.65,SSW,203,2.0,8.0,69,0.00,,,0.00,Wunderground v.1.15,2018-01-17 11:16:00,
2018-01-17 05:22:00,7.6,-0.1,30.65,SSW,193,3.0,7.0,70,0.00,,,0.00,Wunderground v.1.15,2018-01-17 11:22:00,
2018-01-17 05:32:00,8.1,0.0,30.64,SSW,198,3.0,4.0,69,0.00,,,0.00,Wunderground v.1.15,2018-01-17 11:32:00,
2018-01-17 05:38:00,8.1,-0.3,30.64,SSW,202,2.0,4.0,68,0.00,,,0.00,Wunderground v.1.15,2018-01-17 11:38:00,
2018-01-17 05:44:00,8.1,-0.3,30.64,SSW,196,2.0,4.0,68,0.00,,,0.00,Wunderground v.1.15,2018-01-17 11:44:00,
2018-01-17 05:52:00,8.4,0.0,30.64,South,185,3.0,4.0,68,0.00,,,0.00,Wunderground v.1.15,2018-01-17 11:52:00,
2018-01-17 05:58:00,8.4,0.0,30.64,SSW,192,3.0,6.0,68,0.00,,,0.00,Wunderground v.1.15,2018-01-17 11:58:00,
2018-01-17 06:04:00,8.6,0.2,30.63,SSW,203,4.0,8.0,68,0.00,,,0.00,Wunderground v.1.15,2018-01-17 12:04:00,
2018-01-17 06:10:00,8.8,0.1,30.63,SSW,210,5.0,5.0,67,0.00,,,0.00,Wunderground v.1.15,2018-01-17 12:10:00,
2018-01-17 06:18:00,8.8,0.1,30.62,SSW,200,5.0,7.0,67,0.00,,,0.00,Wunderground v.1.15,2018-01-17 12:18:00,
2018-01-17 06:24:00,8.8,0.1,30.62,South,188,5.0,7.0,67,0.00,,,0.00,Wunderground v.1.15,2018-01-17 12:24:00,
2018-01-17 06:36:00,8.6,-0.1,30.62,SSW,206,5.0,6.0,67,0.00,,,0.00,Wunderground v.1.15,2018-01-17 12:36:00,
2018-01-17 06:42:00,8.8,0.1,30.62,SW,227,5.0,10.0,67,0.00,,,0.00,Wunderground v.1.15,2018-01-17 12:42:00,
2018-01-17 06:48:00,8.8,0.1,30.61,SSW,205,5.0,10.0,67,0.00,,,0.00,Wunderground v.1.15,2018-01-17 12:48:00,
2018-01-17 06:54:00,8.8,0.1,30.61,SSW,208,5.0,6.0,67,0.00,,,0.00,Wunderground v.1.15,2018-01-17 12:54:00,
2018-01-17 07:00:00,9.0,-0.1,30.61,SSW,208,5.0,5.0,66,0.00,,,0.00,Wunderground v.1.15,2018-01-17 13:00:00,
2018-01-17 07:06:00,8.8,-0.3,30.61,SSW,205,4.0,5.0,66,0.00,,,0.00,Wunderground v.1.15,2018-01-17 13:06:00,
2018-01-17 07:12:00,8.8,-0.3,30.61,SSW,195,3.0,4.0,66,0.00,,,0.00,Wunderground v.1.15,2018-01-17 13:12:00,
2018-01-17 07:22:00,8.8,-0.3,30.62,SSW,198,3.0,6.0,66,0.00,,,0.00,Wunderground v.1.15,2018-01-17 13:22:00,
2018-01-17 07:28:00,8.8,-0.3,30.62,SSW,199,3.0,6.0,66,0.00,,,0.00,Wunderground v.1.15,2018-01-17 13:28:00,
2018-01-17 07:34:00,8.8,-0.3,30.62,SSW,203,3.0,4.0,66,0.00,,,0.00,Wunderground v.1.15,2018-01-17 13:34:00,
2018-01-17 07:40:00,8.8,-0.3,30.62,SSW,202,3.0,4.0,66,0.00,,,0.00,Wunderground v.1.15,2018-01-17 13:40:00,
2018-01-17 07:48:00,8.8,-0.3,30.62,SSW,198,4.0,8.0,66,0.00,,,0.00,Wunderground v.1.15,2018-01-17 13:48:00,
2018-01-17 08:04:00,8.8,-0.3,30.62,South,188,3.0,4.0,66,0.00,,,0.00,Wunderground v.1.15,2018-01-17 14:04:00,
2018-01-17 08:10:00,8.8,-0.6,30.62,SSW,192,2.0,4.0,65,0.00,,,0.00,Wunderground v.1.15,2018-01-17 14:10:00,
2018-01-17 08:16:00,9.2,-0.2,30.63,SSW,198,4.0,8.0,65,0.00,,,0.00,Wunderground v.1.15,2018-01-17 14:16:00,
2018-01-17 08:22:00,9.5,0.1,30.63,South,188,4.0,7.0,65,0.00,,,0.00,Wunderground v.1.15,2018-01-17 14:22:00,
2018-01-17 08:28:00,9.9,0.5,30.63,SSW,209,4.0,7.0,65,0.00,,,0.00,Wunderground v.1.15,2018-01-17 14:28:00,
2018-01-17 08:34:00,10.2,0.4,30.63,South,189,4.0,9.0,64,0.00,,,0.00,Wunderground v.1.15,2018-01-17 14:34:00,
2018-01-17 08:40:00,10.7,0.9,30.63,SSW,195,5.0,9.0,64,0.00,,,0.00,Wunderground v.1.15,2018-01-17 14:40:00,
2018-01-17 08:48:00,11.2,1.0,30.62,SW,217,5.0,7.0,63,0.00,,,0.00,Wunderground v.1.15,2018-01-17 14:48:00,
2018-01-17 08:54:00,11.6,1.4,30.62,SSW,208,6.0,10.0,63,0.00,,,0.00,Wunderground v.1.15,2018-01-17 14:54:00,
2018-01-17 09:02:00,11.9,1.4,30.61,SSW,205,6.0,9.0,62,0.00,,,0.00,Wunderground v.1.15,2018-01-17 15:02:00,
2018-01-17 09:08:00,12.4,1.5,30.61,SW,215,5.0,9.0,61,0.00,,,0.00,Wunderground v.1.15,2018-01-17 15:08:00,
2018-01-17 09:14:00,12.8,1.9,30.61,SW,223,6.0,9.0,61,0.00,,,0.00,Wunderground v.1.15,2018-01-17 15:14:00,
2018-01-17 09:20:00,13.5,2.2,30.60,SSW,206,6.0,7.0,60,0.00,,,0.00,Wunderground v.1.15,2018-01-17 15:20:00,
2018-01-17 09:26:00,13.8,2.1,30.60,SSW,209,6.0,7.0,59,0.00,,,0.00,Wunderground v.1.15,2018-01-17 15:26:00,
2018-01-17 09:32:00,14.1,2.4,30.60,SSW,212,6.0,7.0,59,0.00,,,0.00,Wunderground v.1.15,2018-01-17 15:32:00,
2018-01-17 09:38:00,14.8,2.7,30.60,SW,222,4.0,7.0,58,0.00,,,0.00,Wunderground v.1.15,2018-01-17 15:38:00,
2018-01-17 09:52:00,16.1,3.5,30.60,SW,220,4.0,4.0,57,0.00,,,0.00,Wunderground v.1.15,2018-01-17 15:52:00,
2018-01-17 10:02:00,16.9,3.9,30.60,SSW,193,4.0,4.0,56,0.00,,,0.00,Wunderground v.1.15,2018-01-17 16:02:00,
2018-01-17 10:08:00,17.5,4.1,30.60,WSW,241,4.0,6.0,55,0.00,,,0.00,Wunderground v.1.15,2018-01-17 16:08:00,
2018-01-17 10:14:00,18.4,4.9,30.60,SSW,212,4.0,4.0,55,0.00,,,0.00,Wunderground v.1.15,2018-01-17 16:14:00,
2018-01-17 10:20:00,19.2,5.3,30.60,SW,230,3.0,6.0,54,0.00,,,0.00,Wunderground v.1.15,2018-01-17 16:20:00,
2018-01-17 10:28:00,20.2,5.4,30.60,SW,223,3.0,3.0,52,0.00,,,0.00,Wunderground v.1.15,2018-01-17 16:28:00,
2018-01-17 10:38:00,21.8,5.5,30.60,SSW,202,4.0,8.0,49,0.00,,,0.00,Wunderground v.1.15,2018-01-17 16:38:00,
2018-01-17 10:44:00,22.5,5.7,30.60,SSW,208,5.0,8.0,48,0.00,,,0.00,Wunderground v.1.15,2018-01-17 16:44:00,
2018-01-17 10:50:00,23.2,5.9,30.58,SSW,212,6.0,8.0,47,0.00,,,0.00,Wunderground v.1.15,2018-01-17 16:50:00,
2018-01-17 10:56:00,23.6,5.8,30.58,SW,226,6.0,8.0,46,0.00,,,0.00,Wunderground v.1.15,2018-01-17 16:56:00,
2018-01-17 11:02:00,24.2,5.9,30.58,WSW,251,6.0,7.0,45,0.00,,,0.00,Wunderground v.1.15,2018-01-17 17:02:00,
2018-01-17 11:08:00,24.8,5.4,30.58,WNW,284,5.0,7.0,43,0.00,,,0.00,Wunderground v.1.15,2018-01-17 17:08:00,
2018-01-17 11:14:00,25.6,7.2,30.58,SSW,213,4.0,6.0,45,0.00,,,0.00,Wunderground v.1.15,2018-01-17 17:14:00,
2018-01-17 11:20:00,26.4,6.4,30.57,SW,217,4.0,10.0,42,0.00,,,0.00,Wunderground v.1.15,2018-01-17 17:20:00,
2018-01-17 11:26:00,26.7,6.1,30.57,SW,227,5.0,7.0,41,0.00,,,0.00,Wunderground v.1.15,2018-01-17 17:26:00,
2018-01-17 11:32:00,27.3,6.7,30.56,SW,226,5.0,5.0,41,0.00,,,0.00,Wunderground v.1.15,2018-01-17 17:32:00,
2018-01-17 11:38:00,27.5,5.7,30.56,WSW,247,5.0,7.0,39,0.00,,,0.00,Wunderground v.1.15,2018-01-17 17:38:00,
2018-01-17 11:44:00,27.5,6.3,30.56,SSW,210,7.0,7.0,40,0.00,,,0.00,Wunderground v.1.15,2018-01-17 17:44:00,
2018-01-17 11:52:00,28.4,7.1,30.55,WSW,250,6.0,7.0,40,0.00,,,0.00,Wunderground v.1.15,2018-01-17 17:52:00,
2018-01-17 11:58:00,28.7,7.4,30.55,SW,229,6.0,7.0,40,0.00,,,0.00,Wunderground v.1.15,2018-01-17 17:58:00,
2018-01-17 12:04:00,29.3,7.4,30.53,SW,220,5.0,6.0,39,0.00,,,0.00,Wunderground v.1.15,2018-01-17 18:04:00,
2018-01-17 12:12:00,29.7,7.7,30.53,SW,220,6.0,7.0,39,0.00,,,0.00,Wunderground v.1.15,2018-01-17 18:12:00,
2018-01-17 12:18:00,30.0,8.0,30.52,SSW,200,6.0,10.0,39,0.00,,,0.00,Wunderground v.1.15,2018-01-17 18:18:00,
2018-01-17 12:26:00,30.3,8.3,30.52,SSW,200,6.0,9.0,39,0.00,,,0.00,Wunderground v.1.15,2018-01-17 18:26:00,
2018-01-17 12:32:00,30.6,8.0,30.51,South,185,6.0,13.0,38,0.00,,,0.00,Wunderground v.1.15,2018-01-17 18:32:00,
2018-01-17 12:38:00,30.4,8.4,30.51,SW,222,7.0,13.0,39,0.00,,,0.00,Wunderground v.1.15,2018-01-17 18:38:00,
2018-01-17 12:48:00,31.5,9.4,30.50,SW,217,4.0,6.0,39,0.00,,,0.00,Wunderground v.1.15,2018-01-17 18:48:00,
2018-01-17 12:54:00,31.8,9.6,30.50,SW,230,6.0,10.0,39,0.00,,,0.00,Wunderground v.1.15,2018-01-17 18:54:00,
2018-01-17 13:00:00,32.1,9.9,30.50,SW,236,5.0,7.0,39,0.00,,,0.00,Wunderground v.1.15,2018-01-17 19:00:00,
2018-01-17 13:08:00,32.1,9.3,30.50,SSW,195,7.0,7.0,38,0.00,,,0.00,Wunderground v.1.15,2018-01-17 19:08:00,
2018-01-17 13:14:00,32.5,9.7,30.50,SSW,210,5.0,7.0,38,0.00,,,0.00,Wunderground v.1.15,2018-01-17 19:14:00,
2018-01-17 13:20:00,32.8,9.9,30.48,SW,222,6.0,7.0,38,0.00,,,0.00,Wunderground v.1.15,2018-01-17 19:20:00,
2018-01-17 13:26:00,33.1,9.6,30.48,SW,223,6.0,8.0,37,0.00,,,0.00,Wunderground v.1.15,2018-01-17 19:26:00,
2018-01-17 13:32:00,33.4,11.1,30.47,SW,223,6.0,6.0,39,0.00,,,0.00,Wunderground v.1.15,2018-01-17 19:32:00,
2018-01-17 13:42:00,33.8,10.2,30.47,SW,216,6.0,6.0,37,0.00,,,0.00,Wunderground v.1.15,2018-01-17 19:42:00,
2018-01-17 13:48:00,34.3,10.7,30.46,SSW,200,6.0,7.0,37,0.00,,,0.00,Wunderground v.1.15,2018-01-17 19:48:00,
2018-01-17 13:54:00,34.4,10.8,30.46,SW,220,7.0,7.0,37,0.00,,,0.00,Wunderground v.1.15,2018-01-17 19:54:00,
2018-01-17 14:00:00,34.9,11.2,30.46,SW,223,6.0,7.0,37,0.00,,,0.00,Wunderground v.1.15,2018-01-17 20:00:00,
2018-01-17 14:08:00,35.2,12.1,30.46,SW,217,6.0,10.0,38,0.00,,,0.00,Wunderground v.1.15,2018-01-17 20:08:00,
2018-01-17 14:14:00,34.9,11.2,30.46,South,191,7.0,13.0,37,0.00,,,0.00,Wunderground v.1.15,2018-01-17 20:14:00,
2018-01-17 14:20:00,35.0,11.9,30.44,South,178,7.0,13.0,38,0.00,,,0.00,Wunderground v.1.15,2018-01-17 20:20:00,
2018-01-17 14:26:00,35.3,12.2,30.44,SSW,212,6.0,8.0,38,0.00,,,0.00,Wunderground v.1.15,2018-01-17 20:26:00,
2018-01-17 14:40:00,35.6,13.0,30.44,SW,222,5.0,7.0,39,0.00,,,0.00,Wunderground v.1.15,2018-01-17 20:40:00,
2018-01-17 14:52:00,35.9,13.3,30.43,SW,215,5.0,7.0,39,0.00,,,0.00,Wunderground v.1.15,2018-01-17 20:52:00,
2018-01-17 15:02:00,35.8,13.2,30.43,WSW,237,7.0,8.0,39,0.00,,,0.00,Wunderground v.1.15,2018-01-17 21:02:00,
2018-01-17 15:16:00,35.9,13.9,30.43,SW,217,6.0,8.0,40,0.00,,,0.00,Wunderground v.1.15,2018-01-17 21:16:00,
2018-01-17 15:18:00,35.9,13.3,30.43,SSE,155,6.0,8.0,39,0.00,,,0.00,Wunderground v.1.15,2018-01-17 21:18:00,
2018-01-17 15:20:00,36.0,13.4,30.43,SSW,210,6.0,15.0,39,0.00,,,0.00,Wunderground v.1.15,2018-01-17 21:20:00,
2018-01-17 15:22:00,36.0,13.4,30.43,SW,217,6.0,15.0,39,0.00,,,0.00,Wunderground v.1.15,2018-01-17 21:22:00,
2018-01-17 15:24:00,36.0,13.4,30.43,SW,227,6.0,15.0,39,0.00,,,0.00,Wunderground v.1.15,2018-01-17 21:24:00,
2018-01-17 15:28:00,36.0,13.4,30.43,South,186,6.0,15.0,39,0.00,,,0.00,Wunderground v.1.15,2018-01-17 21:28:00,
2018-01-17 15:36:00,35.8,13.8,30.43,SSW,206,6.0,7.0,40,0.00,,,0.00,Wunderground v.1.15,2018-01-17 21:36:00,
2018-01-17 15:40:00,35.5,14.1,30.43,SSW,192,5.0,6.0,41,0.00,,,0.00,Wunderground v.1.15,2018-01-17 21:40:00,
2018-01-17 15:44:00,35.5,14.1,30.43,SSW,213,5.0,9.0,41,0.00,,,0.00,Wunderground v.1.15,2018-01-17 21:44:00,
2018-01-17 15:46:00,35.5,14.1,30.43,SSW,193,5.0,9.0,41,0.00,,,0.00,Wunderground v.1.15,2018-01-17 21:46:00,
2018-01-17 15:51:00,35.5,14.6,30.43,South,181,5.0,5.0,42,0.00,,,0.00,Wunderground v.1.15,2018-01-17 21:51:00,
2018-01-17 15:56:00,35.5,14.6,30.43,SSW,206,4.0,9.0,42,0.00,,,0.00,Wunderground v.1.15,2018-01-17 21:56:00,
2018-01-17 16:02:00,35.2,14.9,30.43,SSW,208,4.0,4.0,43,0.00,,,0.00,Wunderground v.1.15,2018-01-17 22:02:00,
2018-01-17 16:06:00,34.9,14.6,30.43,SSW,196,5.0,15.0,43,0.00,,,0.00,Wunderground v.1.15,2018-01-17 22:06:00,
2018-01-17 16:12:00,34.4,14.7,30.43,SW,215,7.0,7.0,44,0.00,,,0.00,Wunderground v.1.15,2018-01-17 22:12:00,
2018-01-17 16:18:00,34.3,14.6,30.43,SSW,208,7.0,7.0,44,0.00,,,0.00,Wunderground v.1.15,2018-01-17 22:18:00,
2018-01-17 16:24:00,34.0,14.9,30.43,SW,217,7.0,10.0,45,0.00,,,0.00,Wunderground v.1.15,2018-01-17 22:24:00,
2018-01-17 16:30:00,33.7,15.1,30.43,SSW,208,6.0,7.0,46,0.00,,,0.00,Wunderground v.1.15,2018-01-17 22:30:00,
2018-01-17 16:36:00,33.5,15.4,30.43,South,186,5.0,8.0,47,0.00,,,0.00,Wunderground v.1.15,2018-01-17 22:36:00,
2018-01-17 16:42:00,33.2,15.6,30.43,SSW,206,7.0,8.0,48,0.00,,,0.00,Wunderground v.1.15,2018-01-17 22:42:00,
2018-01-17 16:48:00,32.9,15.3,30.43,SSW,205,6.0,8.0,48,0.00,,,0.00,Wunderground v.1.15,2018-01-17 22:48:00,
2018-01-17 16:54:00,32.4,15.3,30.43,SSW,203,5.0,9.0,49,0.00,,,0.00,Wunderground v.1.15,2018-01-17 22:54:00,
2018-01-17 17:00:00,31.9,15.3,30.44,SSW,213,6.0,6.0,50,0.00,,,0.00,Wunderground v.1.15,2018-01-17 23:00:00,
2018-01-17 17:02:00,31.9,15.3,30.44,SSW,205,6.0,6.0,50,0.00,,,0.00,Wunderground v.1.15,2018-01-17 23:02:00,
2018-01-17 17:08:00,31.5,15.4,30.44,SSW,203,6.0,7.0,51,0.00,,,0.00,Wunderground v.1.15,2018-01-17 23:08:00,
2018-01-17 17:14:00,30.9,15.3,30.44,South,176,6.0,7.0,52,0.00,,,0.00,Wunderground v.1.15,2018-01-17 23:14:00,
2018-01-17 17:22:00,30.3,15.2,30.43,SSW,202,6.0,6.0,53,0.00,,,0.00,Wunderground v.1.15,2018-01-17 23:22:00,
2018-01-17 17:28:00,30.0,15.3,30.43,SW,222,6.0,7.0,54,0.00,,,0.00,Wunderground v.1.15,2018-01-17 23:28:00,
2018-01-17 17:34:00,29.5,14.9,30.43,SSW,202,5.0,8.0,54,0.00,,,0.00,Wunderground v.1.15,2018-01-17 23:34:00,
2018-01-17 17:40:00,29.3,15.1,30.43,SSW,200,5.0,8.0,55,0.00,,,0.00,Wunderground v.1.15,2018-01-17 23:40:00,
2018-01-17 17:46:00,28.7,15.0,30.43,SSW,209,5.0,5.0,56,0.00,,,0.00,Wunderground v.1.15,2018-01-17 23:46:00,
2018-01-17 17:52:00,28.2,14.9,30.43,SSW,193,4.0,4.0,57,0.00,,,0.00,Wunderground v.1.15,2018-01-17 23:52:00,
2018-01-17 17:58:00,27.6,14.7,30.43,South,186,3.0,6.0,58,0.00,,,0.00,Wunderground v.1.15,2018-01-17 23:58:00,
2018-01-17 18:04:00,27.3,14.8,30.43,South,188,4.0,6.0,59,0.00,,,0.00,Wunderground v.1.15,2018-01-18 00:04:00,
2018-01-17 18:10:00,26.9,14.9,30.43,SSW,195,3.0,6.0,60,0.00,,,0.00,Wunderground v.1.15,2018-01-18 00:10:00,
2018-01-17 18:16:00,26.6,14.9,30.42,SSW,199,3.0,3.0,61,0.00,,,0.00,Wunderground v.1.15,2018-01-18 00:16:00,
2018-01-17 18:22:00,26.4,14.8,30.42,South,191,4.0,6.0,61,0.00,,,0.00,Wunderground v.1.15,2018-01-18 00:22:00,
2018-01-17 18:28:00,26.3,14.7,30.42,SSW,202,5.0,6.0,61,0.00,,,0.00,Wunderground v.1.15,2018-01-18 00:28:00,
2018-01-17 18:34:00,26.1,14.8,30.43,SSW,192,5.0,6.0,62,0.00,,,0.00,Wunderground v.1.15,2018-01-18 00:34:00,
2018-01-17 18:40:00,26.1,14.8,30.43,SSW,199,5.0,7.0,62,0.00,,,0.00,Wunderground v.1.15,2018-01-18 00:40:00,
2018-01-17 18:46:00,26.0,14.8,30.44,SSW,195,5.0,7.0,62,0.00,,,0.00,Wunderground v.1.15,2018-01-18 00:46:00,
2018-01-17 18:52:00,25.8,14.6,30.44,SSW,200,5.0,6.0,62,0.00,,,0.00,Wunderground v.1.15,2018-01-18 00:52:00,